Christchurch, New Zealand

7:06 AM NZDT on February 25, 2018 (GMT +1300)
Christchurch International

Weather History for NZCH - December, 2013

Change the Weather History Date:

Friday, December 6, 2013

  Actual Average Record
Temperature  
Mean Temperature 70 °F -  
Max Temperature 84 °F 66 °F 84 °F (2013)
Min Temperature 57 °F 48 °F 37 °F (1997)
Cooling Degree Days 6    
Growing Degree Days 20 (Base 50)    
Moisture  
Dew Point 58 °F    
Average Humidity 71    
Maximum Humidity 100    
Minimum Humidity 35    
Precipitation  
Precipitation 0.00 in - - ()
Sea Level Pressure  
Sea Level Pressure 29.54 in    
Wind  
Wind Speed 6 mph ()    
Max Wind Speed 16 mph    
Max Gust Speed -    
Visibility 4.3 miles    
Events Fog    
Averages and records for this station are not official NWS values.
T = Trace of Precipitation, MM = Missing Value Source: Averaged Metar Reports

Daily Weather History Graph

Daily Weather History Graph

Search for Another Location

Airport or City:

Trip Planner

Search our weather history database for the weather conditions in past years. The results will help you decide how hot, cold, wet, or windy it might be!

Date:

Astronomy

Dec. 06, 2013 Rise Set
Actual Time 5:42 AM NZDT 8:58 PM NZDT
Civil Twilight 5:07 AM NZDT 9:34 PM NZDT
Nautical Twilight 4:22 AM NZDT 10:19 PM NZDT
Astronomical Twilight 3:26 AM NZDT 11:15 PM NZDT
Moon 9:02 AM NZDT (12/6) 11:38 PM NZDT (12/6)
Length of Visible Light 16h 26m
Length of Day
15h 15m
Waxing Crescent, 12% of the Moon is Illuminated
Dec 6
Waxing Crescent
Dec 10
First Quarter
Dec 17
Full
Dec 26
Last Quarter
Jan 2
New

Hourly Weather History & Observations

Time (NZDT) Temp. Heat Index Dew Point Humidity Pressure Visibility Wind Dir Wind Speed Gust Speed Precip Events Conditions
12:00 AM 59.0 °F - 57.2 °F 94% 29.65 in 1.5 mi NE 4.6 mph - N/A   Overcast
12:30 AM 57.2 °F - 57.2 °F 100% 29.65 in 0.5 mi NNE 5.8 mph - N/A Fog Fog
1:00 AM 57.2 °F - 57.2 °F 100% 29.65 in 0.2 mi NNE 4.6 mph - N/A Fog Fog
1:30 AM 57.2 °F - 57.2 °F 100% 29.65 in 0.2 mi NNE 2.3 mph - N/A Fog Fog
2:00 AM 57.2 °F - 57.2 °F 100% 29.65 in 0.3 mi NNE 4.6 mph - N/A Fog Fog
2:30 AM 57.2 °F - 57.2 °F 100% 29.65 in 0.2 mi East 4.6 mph - N/A Fog Fog
3:00 AM 57.2 °F - 57.2 °F 100% 29.62 in 0.2 mi NE 5.8 mph - N/A Fog Fog
3:30 AM 57.2 °F - 57.2 °F 100% 29.62 in 0.2 mi NE 5.8 mph - N/A Fog Fog
4:00 AM 57.2 °F - 57.2 °F 100% 29.62 in 0.2 mi NE 4.6 mph - N/A Fog Fog
4:30 AM 57.2 °F - 57.2 °F 100% 29.62 in 0.1 mi NE 3.5 mph - N/A Fog Fog
5:00 AM 57.2 °F - 57.2 °F 100% 29.62 in 0.1 mi NE 5.8 mph - N/A Fog Fog
5:30 AM 57.2 °F - 57.2 °F 100% 29.62 in 0.1 mi North 6.9 mph - N/A Fog Fog
6:00 AM 57.2 °F - 57.2 °F 100% 29.62 in 0.2 mi NNE 5.8 mph - N/A Fog Fog
6:30 AM 57.2 °F - 57.2 °F 100% 29.62 in 0.1 mi NE 5.8 mph - N/A Fog Fog
8:30 AM 59.0 °F - 59.0 °F 100% 29.59 in 1.4 mi NNE 4.6 mph - N/A   Overcast
9:00 AM 60.8 °F - 59.0 °F 94% 29.59 in 6.2 mi North 6.9 mph - N/A   Mostly Cloudy
9:30 AM 62.6 °F - 59.0 °F 88% 29.59 in 6.2 mi NE 5.8 mph - N/A   Scattered Clouds
10:00 AM 66.2 °F - 60.8 °F 83% 29.59 in 6.2 mi NNE 5.8 mph - N/A   Unknown
10:30 AM 69.8 °F - 62.6 °F 78% 29.56 in 6.2 mi NNE 5.8 mph - N/A   Unknown
11:00 AM 73.4 °F - 62.6 °F 69% 29.56 in 6.2 mi ENE 8.1 mph - N/A   Unknown
11:30 AM 75.2 °F - 60.8 °F 61% 29.56 in 6.2 mi East 8.1 mph - N/A   Unknown
12:00 PM 75.2 °F - 60.8 °F 61% 29.53 in 6.2 mi East 8.1 mph - N/A   Unknown
12:30 PM 78.8 °F - 60.8 °F 54% 29.53 in 6.2 mi East 9.2 mph - N/A   Unknown
1:00 PM 78.8 °F - 60.8 °F 54% 29.53 in 6.2 mi ENE 9.2 mph - N/A   Unknown
1:30 PM 78.8 °F - 62.6 °F 57% 29.50 in 6.2 mi NE 10.4 mph - N/A   Unknown
2:00 PM 78.8 °F - 60.8 °F 54% 29.50 in 6.2 mi East 11.5 mph - N/A   Unknown
2:30 PM 77.0 °F - 60.8 °F 57% 29.50 in 6.2 mi NE 12.7 mph - N/A   Unknown
3:00 PM 82.4 °F 82.9 °F 60.8 °F 48% 29.50 in 6.2 mi ENE 11.5 mph - N/A   Unknown
3:30 PM 80.6 °F 81.5 °F 60.8 °F 51% 29.47 in 6.2 mi East 13.8 mph - N/A   Unknown
4:00 PM 77.0 °F - 60.8 °F 57% 29.47 in 6.2 mi ENE 13.8 mph - N/A   Unknown
4:30 PM 78.8 °F - 60.8 °F 54% 29.47 in 6.2 mi NNE 8.1 mph - N/A   Unknown
5:00 PM 78.8 °F - 60.8 °F 54% 29.47 in 6.2 mi ENE 11.5 mph - N/A   Unknown
5:30 PM 84.2 °F 82.8 °F 53.6 °F 35% 29.47 in 6.2 mi NNW 12.7 mph - N/A   Unknown
6:00 PM 84.2 °F 82.8 °F 53.6 °F 35% 29.47 in 6.2 mi NNW 15.0 mph - N/A   Unknown
6:30 PM 80.6 °F 80.3 °F 53.6 °F 39% 29.44 in 6.2 mi NNW 16.1 mph - N/A   Unknown
7:00 PM 78.8 °F - 53.6 °F 42% 29.44 in 6.2 mi North 5.8 mph - N/A   Unknown
7:30 PM 77.0 °F - 59.0 °F 54% 29.44 in 6.2 mi North 5.8 mph - N/A   Unknown
8:00 PM 71.6 °F - 62.6 °F 73% 29.44 in 6.2 mi NE 6.9 mph - N/A   Unknown
8:30 PM 71.6 °F - 60.8 °F 69% 29.47 in 6.2 mi NE 4.6 mph - N/A   Unknown
9:00 PM 75.2 °F - 55.4 °F 50% 29.47 in 6.2 mi North 8.1 mph - N/A   Unknown
9:30 PM 77.0 °F - 51.8 °F 41% 29.47 in 6.2 mi NNW 16.1 mph - N/A   Unknown
10:00 PM 75.2 °F - 50.0 °F 41% 29.47 in 6.2 mi NW 10.4 mph - N/A   Unknown
10:30 PM 73.4 °F - 51.8 °F 47% 29.47 in 6.2 mi North 12.7 mph - N/A   Unknown
11:00 PM 69.8 °F - 50.0 °F 49% 29.47 in 6.2 mi NNE 4.6 mph - N/A   Unknown
11:30 PM 73.4 °F - 48.2 °F 41% 29.44 in 6.2 mi North 13.8 mph - N/A   Scattered Clouds